Simultaneous Nadir Overpasses (SNOs) Predictions

Prediction of SNOs between METOP-A and TERRA Satellite Orbit:

Table of predicted SNOs for the next 14.0 days since TLE Epoch: 12/22/2018
Index Date (METOP-A) Time (METOP-A) Lat,Lon (METOP-A) SZA (METOP-A ) Date (TERRA) Time (TERRA) Lat,Lon (TERRA) SZA (TERRA ) Distance(km) Time Diff (sec)
1 12/23/2018 08:24:49 -81.43, -80.68 72.71 12/23/2018 08:26:03 -81.24, -80.25 72.78 22.69 74
2 12/23/2018 09:15:18 81.44, 91.19 107.78 12/23/2018 09:15:19 81.44, 91.34 107.80 2.52 1
3 12/23/2018 10:05:58 -81.44,-101.08 72.19 12/23/2018 10:04:46 -81.44,-101.12 72.22 0.66 72
4 12/26/2018 03:59:13 -81.39, -17.83 73.20 12/26/2018 04:00:23 -81.14, -15.49 73.13 48.57 70
5 12/26/2018 04:49:33 81.44, 157.57 107.67 12/26/2018 04:49:35 81.43, 157.53 107.66 1.10 2
6 12/26/2018 05:40:13 -81.44, -34.67 72.29 12/26/2018 05:39:01 -81.45, -34.51 72.30 2.76 72
7 12/29/2018 00:23:48 81.44,-136.06 107.50 12/29/2018 00:23:50 81.44,-135.91 107.51 2.51 2
8 12/29/2018 01:14:28 -81.44, 31.72 72.46 12/29/2018 01:13:17 -81.43, 31.67 72.50 0.90 71
9 12/31/2018 19:58:01 81.44, -69.31 107.31 12/31/2018 19:58:04 81.44, -69.39 107.30 1.30 3
10 12/31/2018 20:48:42 -81.44, 98.09 72.69 12/31/2018 20:47:31 -81.44, 98.22 72.71 2.03 71
11 01/03/2019 15:32:16 81.44, -2.98 107.02 01/03/2019 15:32:19 81.44, -2.89 107.03 1.43 3




NCC Satellite Simultaneous Nadir Overpasses (SNOs) Prediction Service
